Location: Amsterdam
(30.7274°N, 84.4357°W)
Time: 06:35:13
(UTC+00:00)

Tiros 1 - Pass Details

Date: 17 February 2026
Orbit: 618 x 649 km, 48.4° (Epoch: 9 March)

Event Time Altitude Azimuth Distance (km) Brightness Sun altitude
Rises 14:28:02 0° 256° (WSW) 2,910 10.1 25.2°
Reaches altitude 10° 14:30:38 10° 268° (W) 1,999 9.3 25.6°
Maximum altitude 14:34:36 28° 328° (NNW) 1,167 8.2 26.4°
Drops below altitude 10° 14:38:34 10° 28° (NNE) 1,988 9.7 27.1°
Sets 14:41:08 0° 40° (NE) 2,892 10.6 27.5°
